Wind_Speed
9 8 6 5 5 5 5 6 5 5 5 4 4 4 3 2 2 2 2 4 5 7 8 9 10 11 13 14 15 17 18 19 19 20 21 22 22 22 22 23 23 24 25 25 26 27 27 28 28
10 9 8 7 7 7 6 6 6 5 4 3 2 1 1 2 3 4 5 7 8 9 10 11 13 14 15 16 18 19 20 21 22 22 23 23 24 24 24 24 25 25 26 27 28 28 29 30 31
9 8 7 6 6 5 5 4 4 3 2 1 1 2 4 5 6 7 8 9 10 11 12 13 14 16 17 19 20 21 22 22 23 24 24 24 25 25 26 26 27 28 28 29 30 31 32 33 34
7 6 5 5 4 3 2 1 1 0 2 3 4 5 7 8 9 10 10 11 12 13 14 15 16 17 19 21 22 22 23 23 24 25 25 26 26 27 28 29 29 30 31 32 33 34 35 36 37
5 4 3 3 2 2 2 3 4 5 6 7 8 9 10 11 11 11 12 12 13 14 15 16 18 19 21 21 22 23 23 24 24 25 26 27 28 29 29 30 31 33 34 35 35 36 38 39 40
4 5 5 5 5 5 6 7 8 9 10 10 11 11 12 12 12 12 13 13 14 15 16 17 19 20 21 21 22 23 23 24 24 25 26 27 28 29 30 32 33 34 35 36 38 39 40 42 43
6 7 8 8 9 9 10 11 12 12 12 13 12 12 13 13 13 13 13 14 15 16 17 18 19 20 20 21 22 22 23 24 25 26 27 28 29 30 31 32 34 35 36 37 39 41 42 44 45
9 10 10 11 11 12 13 13 13 14 14 13 12 12 13 14 13 13 14 15 16 17 18 18 19 19 20 21 21 22 23 24 25 26 27 28 29 30 31 33 34 35 37 38 40 42 43 45 47
11 11 12 12 12 13 14 14 14 14 14 13 12 12 13 14 14 14 15 15 16 17 17 18 18 19 20 21 22 23 24 25 26 27 28 29 30 31 32 34 35 36 38 40 41 43 45 47 49
12 12 12 13 13 13 13 14 13 13 13 13 12 12 13 13 14 14 15 15 15 16 17 17 18 19 20 21 22 23 24 26 27 28 29 30 32 33 34 35 36 38 39 41 42 44 46 48 50
12 12 13 13 13 12 12 13 13 13 13 13 13 12 12 13 14 14 14 14 15 15 16 17 18 19 20 22 23 24 26 27 29 30 31 32 33 35 36 37 38 40 41 43 44 46 48 50 52
12 12 13 13 13 13 13 13 13 13 13 13 13 13 13 13 13 13 14 14 14 14 15 17 18 19 20 22 23 25 27 29 30 32 33 34 36 37 38 39 41 42 43 45 47 49 50 52 54
13 13 13 13 14 13 13 12 12 13 12 13 13 13 13 13 13 13 13 13 13 14 15 17 18 19 21 23 24 26 28 30 32 33 35 36 38 39 40 41 42 44 45 47 49 51 53 55 56
14 13 13 14 14 14 13 12 12 13 12 12 12 12 13 13 12 12 12 13 13 14 15 17 18 20 21 23 25 27 29 31 33 35 37 38 39 41 42 43 44 45 47 49 51 53 55 57 59
15 15 14 15 15 15 14 12 12 12 12 12 12 12 12 12 12 12 13 13 14 15 16 18 19 21 22 24 26 28 31 33 35 36 38 39 41 42 43 45 46 47 49 51 53 55 57 59 61
16 16 16 16 16 16 15 13 13 12 12 12 12 12 12 12 13 13 14 15 16 17 18 20 21 22 24 26 27 30 32 34 36 38 40 41 42 44 45 46 47 49 51 53 55 57 59 61 64
17 17 17 18 18 17 16 14 16 13 14 14 13 13 13 14 14 15 16 17 18 20 21 22 24 25 26 28 29 31 34 36 38 40 42 44 45 45 47 48 49 51 53 55 57 59 61 64 66
19 19 19 20 20 19 17 16 17 16 15 15 15 15 16 16 17 17 19 20 21 22 24 25 26 27 29 30 32 34 36 39 41 43 44 46 47 48 49 50 51 53 55 57 59 62 64 66 68
21 21 21 22 23 22 20 18 19 20 18 18 18 18 18 19 20 20 22 23 24 25 27 28 29 31 32 33 35 36 39 41 43 45 47 48 49 50 51 52 53 55 57 59 61 64 66 69 71
23 23 23 24 25 25 23 21 22 22 21 21 20 20 21 22 22 23 24 26 27 29 30 31 32 34 35 36 38 39 41 43 45 47 49 50 51 52 53 54 56 57 59 61 63 66 69 71 74
24 25 25 26 27 27 27 23 23 24 23 23 23 23 23 24 25 26 27 28 30 31 33 34 35 37 38 40 41 42 44 46 48 49 51 52 54 55 56 57 58 60 62 64 66 68 71 73 77
26 27 28 28 29 29 29 28 19 25 24 24 24 25 25 26 28 29 30 31 32 34 35 37 38 40 41 43 44 45 47 48 50 52 53 54 56 57 58 59 61 62 64 66 68 71 73 76 78
29 29 30 31 31 30 30 32 23 25 25 26 27 27 27 29 30 31 32 33 35 37 38 40 41 42 44 45 47 48 49 51 53 54 55 56 58 59 60 61 63 64 65 68 70 73 75 77 79
30 31 33 32 32 32 31 33 28 25 27 27 28 29 29 31 32 33 35 36 38 40 41 43 44 45 47 48 49 50 52 53 55 55 56 58 59 61 62 63 64 65 67 69 72 74 77 78 79
31 32 35 36 34 33 33 33 29 27 28 29 30 31 32 33 35 36 38 40 41 43 44 46 47 48 49 50 51 52 54 55 56 57 58 59 60 62 63 64 66 67 69 71 73 75 77 79 79
31 33 35 39 39 36 35 34 29 28 29 30 31 33 35 37 39 40 42 44 45 46 47 49 50 51 52 52 53 54 55 57 58 58 59 60 62 64 64 66 67 68 70 72 74 75 77 78 78
33 33 35 39 41 40 37 35 31 28 27 29 31 34 37 40 42 44 46 47 48 49 50 51 52 53 54 54 55 56 57 58 59 60 61 62 63 65 66 67 68 70 71 72 74 75 76 77 77
34 35 36 38 42 44 41 37 33 30 29 30 33 36 39 42 45 47 49 51 52 52 53 53 54 55 55 56 57 58 58 60 61 62 62 64 65 66 67 68 69 70 71 72 74 75 75 75 75
35 35 37 40 42 45 47 41 35 35 34 35 36 39 42 45 48 50 52 53 54 55 55 56 56 56 57 58 58 59 60 61 62 63 64 65 66 67 68 69 70 70 71 72 73 74 74 74 73
36 37 38 40 43 45 49 47 38 38 39 40 42 43 45 47 49 51 52 54 54 55 56 56 57 57 58 58 59 60 60 61 63 63 65 66 66 67 68 69 69 69 70 71 72 73 72 72 71
Wind_Direction
73 75 79 84 91 98 107 112 117 121 123 120 118 113 108 100 74 21 356 341 334 328 322 319 317 315 312 310 308 307 305 304 303 302 301 301 300 299 298 297 296 295 295 294 294 293 292 291 290
74 76 79 84 89 97 104 109 118 123 125 123 118 90 7 342 338 332 325 323 320 317 315 314 312 310 309 308 307 306 304 303 303 302 302 301 301 299 298 297 296 295 295 294 293 292 291 290 290
71 70 75 78 83 88 98 107 119 128 136 161 281 305 311 313 316 315 313 314 313 311 310 309 308 306 306 306 306 305 304 304 304 304 304 303 303 301 300 299 298 296 295 294 292 291 290 290 289
63 62 62 66 68 69 72 81 97 271 284 291 294 299 302 303 305 306 306 306 306 306 306 306 305 305 305 305 306 306 306 306 306 307 307 306 305 304 302 301 299 297 295 294 292 290 289 288 287
43 35 28 24 10 356 336 316 306 300 296 296 297 300 300 298 298 299 299 301 302 303 303 304 304 305 306 306 307 307 308 309 309 309 309 308 308 306 305 303 301 299 297 295 293 291 289 287 286
3 346 330 322 316 310 306 301 299 297 296 296 297 299 298 295 296 296 297 298 300 301 301 303 305 306 307 308 309 310 311 312 313 312 312 311 311 309 308 306 304 301 299 297 295 293 291 289 287
323 317 310 307 304 301 298 296 295 295 294 294 295 297 295 294 294 294 295 297 299 300 302 304 306 308 310 311 313 314 315 316 316 315 315 314 314 312 311 309 307 304 302 300 298 296 294 292 290
311 306 302 301 298 295 293 292 292 292 292 293 293 293 292 292 293 294 295 298 300 302 305 307 309 312 313 315 316 317 318 318 318 317 317 317 316 316 314 313 311 309 307 305 303 301 299 296 294
311 307 302 300 297 294 292 291 291 291 291 291 291 290 290 291 293 295 297 300 302 305 307 309 312 315 317 318 318 319 319 319 318 318 318 318 318 317 317 315 314 313 311 309 306 304 302 300 298
314 310 306 304 301 297 294 293 292 291 290 290 290 289 289 291 294 297 300 303 305 307 310 313 316 318 319 319 320 320 320 319 318 318 318 317 317 317 316 316 315 314 313 311 309 307 305 303 301
315 312 309 307 305 301 298 295 294 292 290 292 293 292 291 292 295 298 302 305 308 310 313 316 318 319 319 320 321 321 320 319 317 317 317 317 316 315 315 315 314 314 314 313 312 310 308 306 304
314 311 309 305 303 300 297 294 293 292 292 293 293 294 293 294 297 300 304 308 311 315 318 320 321 321 321 322 322 322 320 319 318 318 317 316 316 315 314 314 315 315 314 314 314 312 311 309 307
311 308 306 303 299 297 295 292 290 289 291 291 291 291 292 295 298 302 306 309 313 317 320 323 323 323 324 325 324 323 321 320 319 318 318 317 315 315 314 314 314 314 315 315 314 313 312 311 309
306 304 302 299 297 295 293 290 287 286 288 287 287 288 290 293 297 301 306 310 314 317 319 321 322 324 325 326 326 324 323 321 321 320 319 318 316 315 314 313 313 313 314 315 315 315 314 313 312
302 301 298 297 296 293 291 289 283 281 282 283 283 284 286 290 295 299 304 307 311 313 315 317 319 322 323 325 325 325 324 323 323 322 321 320 318 316 314 314 313 313 314 315 316 315 315 314 313
298 297 294 293 292 290 288 287 282 279 279 280 281 281 283 288 292 296 300 303 306 309 311 313 316 318 320 322 323 324 324 324 324 324 323 322 320 318 316 314 314 314 314 315 316 316 315 315 315
294 293 291 290 289 287 285 283 282 277 277 279 280 281 282 285 288 292 295 298 302 305 307 310 312 314 316 319 321 322 323 324 325 325 324 323 321 319 317 316 315 314 315 315 316 317 316 316 316
292 291 289 288 287 286 284 280 279 279 276 277 279 281 282 284 286 290 292 295 298 301 303 305 308 310 313 315 317 319 321 322 323 324 324 323 322 320 318 317 316 316 315 316 317 318 318 318 318
292 291 289 287 287 285 284 282 279 278 277 277 279 280 282 283 287 289 291 293 295 298 300 302 305 307 310 312 314 316 317 319 321 322 322 322 322 321 319 318 317 317 317 318 319 319 320 320 320
292 292 290 288 287 286 283 283 279 277 278 278 280 281 282 284 286 288 290 292 294 296 299 301 303 306 308 309 311 313 315 317 318 320 320 320 320 320 319 318 318 318 319 319 320 321 321 322 322
292 293 292 290 288 287 285 282 280 279 279 281 281 281 282 284 286 288 290 291 293 295 298 300 302 304 306 308 310 311 313 314 316 317 318 319 319 319 319 318 318 318 319 321 322 323 323 323 323
292 292 293 292 291 290 289 286 279 282 283 282 281 281 282 283 285 287 289 290 292 294 297 298 300 302 304 306 308 310 311 313 314 315 316 317 318 318 318 319 319 319 320 322 324 324 324 324 324
293 292 293 293 293 293 293 290 289 283 282 281 281 282 282 283 285 287 288 290 291 293 295 297 299 301 302 304 306 308 309 311 312 314 314 316 317 317 317 318 319 320 321 323 324 325 325 325 325
295 295 294 293 294 295 294 294 296 290 284 282 281 282 281 282 284 285 287 289 290 292 294 296 298 299 300 302 304 306 308 309 311 312 313 314 315 316 316 317 318 320 322 323 324 325 325 325 325
296 297 297 296 296 297 297 296 302 298 290 284 282 281 280 281 282 283 285 287 289 290 293 295 296 298 299 301 303 304 306 308 309 311 312 313 314 315 316 317 319 320 322 323 324 325 325 324 324
297 298 299 299 299 299 299 301 306 303 295 288 284 282 281 281 281 282 284 286 287 289 292 294 296 297 298 299 301 303 304 306 308 310 311 312 313 314 315 317 318 320 322 323 324 324 324 324 324
296 297 297 298 298 299 300 302 306 306 300 293 288 283 281 280 280 282 284 285 287 289 292 294 295 296 297 298 300 302 304 305 307 308 310 311 312 313 314 316 318 320 322 323 324 324 323 323 324
296 298 299 298 299 300 300 303 310 312 304 295 287 283 280 279 280 281 284 285 287 289 291 293 295 296 296 298 299 301 302 304 306 308 310 311 311 312 313 316 318 319 321 322 323 323 323 323 324
293 294 294 295 296 298 299 301 311 307 302 295 288 284 281 281 282 283 285 287 289 291 292 294 295 295 296 298 299 300 302 304 306 307 308 309 310 312 313 315 317 319 320 321 322 322 323 323 324
292 292 293 294 294 296 297 300 307 303 299 294 290 288 287 287 288 289 290 291 292 293 293 294 294 295 296 297 298 300 301 303 304 306 307 309 309 311 313 315 317 318 319 320 321 321 322 323 324
Height
5870 5870 5871 5872 5872 5872 5872 5873 5872 5872 5873 5873 5874 5874 5874 5875 5875 5877 5874 5872 5872 5871 5871 5870 5870 5869 5868 5868 5867 5866 5865 5864 5863 5862 5861 5860 5859 5858 5857 5856 5855 5854 5853 5853 5852 5851 5850 5850 5850
5872 5872 5873 5874 5873 5873 5874 5874 5874 5874 5875 5874 5875 5875 5874 5874 5874 5873 5872 5871 5871 5870 5869 5868 5868 5867 5866 5865 5864 5863 5862 5861 5860 5858 5857 5856 5855 5853 5853 5852 5851 5850 5849 5848 5847 5846 5845 5844 5844
5874 5874 5875 5875 5875 5875 5875 5875 5875 5875 5875 5875 5875 5875 5874 5874 5873 5872 5871 5870 5869 5868 5867 5866 5865 5865 5864 5862 5861 5860 5858 5857 5855 5854 5853 5851 5850 5849 5847 5846 5845 5844 5843 5842 5841 5840 5839 5838 5837
5876 5877 5877 5877 5876 5876 5876 5876 5875 5875 5875 5875 5875 5874 5873 5873 5872 5871 5869 5868 5867 5866 5865 5864 5863 5862 5861 5859 5858 5856 5854 5853 5851 5850 5848 5846 5845 5843 5842 5841 5839 5838 5837 5836 5835 5833 5832 5831 5830
5878 5878 5878 5877 5876 5876 5876 5876 5875 5875 5874 5874 5873 5872 5871 5871 5869 5868 5867 5866 5865 5864 5863 5862 5860 5859 5857 5856 5854 5852 5850 5849 5847 5845 5843 5841 5839 5838 5836 5834 5833 5831 5830 5828 5827 5826 5824 5823 5822
5879 5878 5878 5877 5876 5876 5875 5874 5874 5873 5872 5872 5871 5870 5869 5868 5867 5866 5865 5864 5863 5862 5860 5859 5858 5856 5854 5852 5850 5848 5846 5844 5842 5840 5838 5836 5834 5832 5829 5828 5825 5824 5822 5820 5818 5817 5815 5813 5812
5879 5878 5877 5876 5875 5874 5874 5872 5872 5871 5870 5869 5868 5867 5866 5865 5864 5863 5862 5861 5860 5859 5857 5856 5854 5853 5851 5849 5847 5844 5842 5840 5838 5835 5833 5830 5828 5825 5823 5821 5818 5816 5813 5811 5809 5806 5804 5802 5800
5877 5877 5875 5874 5874 5873 5872 5870 5869 5868 5868 5867 5866 5865 5864 5863 5861 5860 5860 5858 5857 5856 5854 5853 5851 5849 5847 5845 5843 5840 5838 5836 5833 5831 5828 5825 5822 5819 5816 5813 5810 5807 5804 5802 5799 5796 5793 5790 5788
5876 5876 5873 5872 5871 5870 5869 5868 5867 5866 5865 5864 5863 5862 5861 5859 5858 5857 5857 5856 5854 5853 5851 5849 5848 5846 5844 5841 5839 5836 5834 5831 5829 5826 5823 5820 5816 5813 5810 5806 5803 5799 5796 5792 5789 5785 5782 5778 5775
5874 5873 5871 5870 5869 5868 5866 5865 5864 5864 5862 5861 5860 5859 5858 5856 5855 5855 5854 5853 5851 5850 5848 5846 5844 5842 5840 5838 5835 5832 5830 5827 5824 5821 5817 5814 5810 5806 5803 5799 5795 5791 5787 5783 5779 5775 5771 5766 5762
5872 5871 5869 5867 5866 5865 5864 5863 5862 5861 5860 5859 5858 5856 5855 5854 5852 5851 5850 5849 5848 5847 5845 5843 5841 5839 5836 5834 5831 5828 5825 5822 5818 5815 5811 5807 5803 5800 5795 5791 5787 5782 5778 5773 5768 5764 5759 5754 5749
5870 5868 5867 5865 5864 5863 5862 5861 5860 5858 5858 5856 5855 5853 5852 5851 5850 5849 5847 5846 5845 5843 5842 5840 5838 5835 5833 5830 5827 5824 5820 5817 5813 5809 5805 5801 5796 5792 5787 5783 5778 5773 5768 5763 5758 5753 5747 5742 5736
5868 5867 5865 5864 5862 5861 5860 5859 5858 5856 5855 5853 5852 5851 5849 5848 5847 5846 5845 5843 5842 5840 5838 5836 5834 5831 5829 5825 5822 5819 5815 5811 5807 5803 5798 5794 5789 5784 5779 5774 5769 5764 5758 5753 5747 5741 5735 5729 5722
5867 5865 5863 5862 5860 5859 5858 5857 5855 5854 5853 5851 5850 5849 5847 5846 5844 5843 5842 5840 5838 5837 5835 5832 5830 5827 5824 5821 5817 5814 5810 5806 5801 5796 5791 5786 5781 5776 5771 5765 5760 5754 5749 5743 5736 5730 5723 5716 5709
5864 5863 5862 5860 5858 5857 5856 5855 5853 5851 5850 5849 5847 5846 5845 5843 5842 5840 5839 5837 5835 5833 5831 5829 5826 5823 5820 5816 5812 5809 5804 5800 5795 5790 5784 5779 5773 5768 5762 5756 5750 5745 5738 5732 5725 5718 5711 5703 5696
5862 5861 5859 5858 5856 5854 5854 5853 5850 5849 5847 5846 5845 5843 5842 5840 5839 5837 5835 5834 5832 5829 5827 5824 5822 5818 5815 5811 5807 5803 5798 5793 5788 5783 5777 5771 5765 5759 5753 5747 5741 5734 5728 5721 5714 5706 5698 5690 5682
5859 5858 5856 5854 5853 5851 5850 5850 5847 5845 5844 5843 5841 5840 5839 5837 5836 5834 5832 5830 5828 5825 5823 5820 5817 5813 5809 5805 5801 5796 5792 5786 5781 5775 5769 5763 5757 5751 5744 5737 5731 5724 5717 5709 5702 5693 5685 5676 5667
5856 5854 5852 5850 5849 5848 5846 5846 5844 5842 5841 5839 5838 5837 5835 5833 5832 5830 5828 5826 5823 5821 5818 5815 5811 5807 5803 5799 5794 5789 5784 5779 5773 5767 5761 5755 5748 5741 5734 5727 5720 5713 5705 5697 5689 5680 5670 5661 5651
5852 5850 5848 5847 5844 5843 5842 5842 5841 5838 5837 5836 5834 5833 5831 5829 5827 5826 5823 5821 5818 5816 5813 5809 5805 5801 5797 5792 5787 5782 5777 5771 5765 5759 5752 5746 5739 5732 5724 5717 5709 5701 5693 5684 5675 5666 5655 5644 5634
5847 5846 5844 5842 5839 5838 5838 5838 5837 5834 5833 5832 5830 5828 5826 5825 5823 5820 5818 5815 5813 5810 5806 5802 5798 5794 5789 5785 5780 5775 5769 5763 5756 5750 5743 5736 5729 5721 5714 5706 5697 5689 5680 5671 5661 5651 5640 5628 5615
5843 5841 5839 5837 5835 5833 5832 5834 5833 5830 5828 5827 5825 5823 5821 5819 5817 5814 5812 5809 5806 5803 5799 5795 5791 5786 5781 5777 5772 5766 5760 5754 5747 5741 5734 5726 5719 5711 5703 5694 5685 5676 5667 5657 5647 5636 5625 5612 5598
5839 5836 5833 5831 5829 5828 5827 5826 5830 5825 5823 5821 5819 5817 5815 5813 5811 5808 5805 5802 5799 5795 5792 5788 5783 5778 5773 5768 5762 5757 5751 5745 5738 5731 5724 5716 5708 5700 5691 5682 5673 5664 5654 5643 5632 5620 5608 5595 5582
5833 5831 5828 5826 5824 5823 5821 5818 5824 5821 5818 5815 5813 5811 5809 5806 5804 5801 5798 5795 5791 5787 5784 5779 5774 5770 5764 5759 5753 5747 5741 5735 5728 5720 5713 5705 5697 5689 5680 5671 5661 5651 5641 5630 5618 5605 5592 5579 5565
5828 5825 5823 5820 5818 5818 5816 5813 5816 5815 5812 5809 5807 5804 5801 5799 5796 5793 5789 5786 5783 5778 5774 5770 5765 5760 5754 5749 5743 5737 5731 5724 5717 5709 5702 5694 5686 5677 5668 5659 5649 5639 5628 5616 5603 5590 5577 5563 5548
5823 5820 5816 5813 5812 5811 5809 5807 5810 5807 5804 5801 5799 5796 5793 5790 5787 5784 5780 5777 5773 5769 5765 5760 5755 5750 5744 5739 5733 5726 5720 5713 5706 5698 5690 5682 5674 5665 5656 5647 5636 5626 5614 5602 5590 5576 5562 5548 5533
5818 5815 5811 5806 5804 5803 5802 5800 5804 5801 5796 5793 5790 5787 5784 5781 5777 5774 5770 5767 5763 5759 5754 5749 5744 5739 5733 5727 5721 5715 5709 5701 5694 5686 5679 5670 5662 5653 5643 5634 5624 5613 5601 5589 5576 5563 5548 5534 5519
5812 5809 5806 5801 5796 5794 5794 5794 5796 5793 5789 5785 5781 5778 5774 5770 5766 5763 5759 5755 5751 5748 5743 5738 5733 5727 5722 5716 5710 5704 5697 5689 5682 5674 5666 5658 5649 5640 5630 5621 5610 5599 5588 5576 5563 5549 5535 5521 5506
5806 5802 5799 5794 5789 5785 5785 5786 5787 5784 5780 5777 5772 5767 5763 5759 5755 5751 5747 5743 5740 5736 5731 5726 5721 5715 5710 5704 5698 5691 5685 5677 5670 5662 5654 5645 5636 5627 5617 5607 5597 5586 5575 5562 5550 5537 5523 5508 5493
5800 5797 5792 5787 5784 5778 5773 5779 5780 5774 5769 5765 5761 5756 5752 5748 5744 5740 5736 5732 5728 5724 5719 5714 5708 5703 5697 5691 5685 5679 5672 5664 5657 5649 5641 5632 5623 5614 5605 5594 5584 5573 5561 5549 5537 5524 5510 5496 5481
5792 5789 5785 5781 5777 5772 5765 5768 5770 5764 5758 5753 5749 5746 5741 5737 5734 5729 5725 5721 5716 5711 5706 5701 5696 5690 5684 5678 5672 5666 5659 5651 5644 5636 5628 5619 5610 5601 5592 5581 5571 5560 5549 5537 5525 5512 5498 5485 5470